Year,Month,Day,Hour,Minute,Value (Times are PST for temperature in C)
2016,06,01,07,01,24.60
2016,06,01,07,32,19.70
2016,06,01,07,33,18.70
2016,06,01,07,34,19.60
2016,06,01,07,35,19.40
2016,06,01,07,36,19.70
2016,06,01,07,37,21.80
2016,06,01,07,38,24.50
2016,06,01,07,52,23.30
2016,06,01,07,54,24.00
2016,06,01,07,55,23.90
2016,06,01,08,00,24.90
2016,06,01,08,01,20.00
2016,06,01,08,02,21.30
2016,06,01,08,03,21.10
2016,06,01,08,05,24.70
2016,06,01,08,06,20.80
2016,06,01,08,07,18.40
2016,06,01,08,08,18.10
2016,06,01,08,09,20.40
2016,06,01,08,10,21.10
2016,06,01,08,11,19.40
2016,06,01,08,12,19.00
2016,06,01,08,13,19.60
2016,06,01,08,14,18.40
2016,06,01,08,15,19.00
2016,06,01,08,16,20.00
2016,06,01,08,17,19.50
2016,06,01,08,18,19.60
2016,06,01,08,19,22.50
2016,06,01,08,20,22.20
2016,06,01,08,21,22.70
2016,06,01,08,22,22.10
2016,06,01,08,23,22.20
2016,06,01,08,24,21.70
2016,06,01,08,25,21.10
2016,06,01,08,26,20.80
2016,06,01,08,27,23.80
2016,06,01,08,34,23.70
2016,06,01,08,35,21.70
2016,06,01,08,36,20.00
2016,06,01,08,37,24.30
2016,06,01,08,38,22.50
2016,06,01,08,41,24.30
2016,06,01,08,42,24.10
2016,06,01,08,43,24.50
2016,06,01,08,44,19.60
2016,06,01,08,45,19.80
2016,06,01,08,46,20.60
2016,06,01,08,47,19.80
2016,06,01,08,48,19.00
2016,06,01,08,49,18.80
2016,06,01,08,50,18.50
2016,06,01,08,51,18.30
2016,06,01,08,52,18.10
2016,06,01,08,53,18.20
2016,06,01,08,54,19.10
2016,06,01,08,55,24.00
2016,06,01,09,02,24.50
2016,06,01,09,04,21.90
2016,06,01,09,05,21.00
2016,06,01,09,06,24.70
2016,06,01,09,07,24.90
2016,06,01,09,14,22.80
2016,06,01,09,15,22.50
2016,06,01,09,16,22.50
2016,06,01,09,17,22.50
2016,06,01,09,33,21.00
2016,06,01,09,34,20.80
2016,06,01,09,35,20.80
2016,06,01,09,36,21.50
2016,06,01,09,37,24.90
2016,06,01,09,38,21.80
2016,06,01,09,39,20.60
2016,06,01,09,40,21.10
2016,06,01,09,41,21.50
2016,06,01,09,42,21.10
2016,06,01,09,43,24.70
2016,06,01,09,46,23.90
2016,06,01,09,47,22.70
2016,06,01,09,48,22.30
2016,06,01,09,49,22.60
2016,06,01,09,50,23.50
2016,06,01,09,58,21.50
2016,06,01,09,59,24.30
2016,06,01,10,00,24.00
2016,06,01,10,01,21.50
2016,06,01,10,02,21.10
2016,06,01,10,03,21.70
2016,06,01,10,04,22.50
2016,06,01,10,36,24.40
2016,06,01,10,37,24.00
2016,06,01,10,42,23.90
2016,06,01,10,43,22.80
2016,06,01,10,44,23.00
2016,06,01,10,45,21.90
2016,06,01,10,46,22.70
2016,06,01,10,47,21.70
2016,06,01,10,48,20.50
2016,06,01,10,49,19.60
2016,06,01,10,50,19.90
2016,06,01,10,51,18.80
2016,06,01,10,52,18.60
2016,06,01,10,53,19.80
2016,06,01,10,54,23.20
2016,06,01,10,55,21.70
2016,06,01,10,56,21.20
2016,06,01,10,57,20.40
2016,06,01,10,58,22.40
2016,06,01,10,59,23.40
2016,06,01,11,00,21.30
2016,06,01,11,01,20.70
2016,06,01,11,02,19.90
2016,06,01,11,03,19.20
2016,06,01,11,04,19.10
2016,06,01,11,05,18.80
2016,06,01,11,06,18.50
2016,06,01,11,07,18.80
2016,06,01,11,08,19.00
2016,06,01,11,09,18.80
2016,06,01,11,10,19.50
2016,06,01,11,11,21.90
2016,06,01,11,12,22.00
2016,06,01,11,13,18.80
2016,06,01,11,14,18.90
2016,06,01,11,15,18.60
2016,06,01,11,16,18.70
2016,06,01,11,17,18.90
2016,06,01,11,18,18.90
2016,06,01,11,19,18.80
2016,06,01,11,20,18.70
2016,06,01,11,21,18.80
2016,06,01,11,22,18.80
2016,06,01,11,23,18.90
2016,06,01,11,24,18.80
2016,06,01,11,25,18.80
2016,06,01,11,26,19.10
2016,06,01,11,27,19.30
2016,06,01,11,28,19.20
2016,06,01,11,29,19.20
2016,06,01,12,02,24.60
2016,06,01,12,13,23.00
2016,06,01,12,14,23.70
2016,06,01,12,15,23.40
2016,06,01,12,21,22.20
2016,06,01,12,22,24.50
2016,06,01,12,23,24.50
2016,06,01,12,24,24.50
